“In life, you're either a passenger or a pilot. It’s your choice.”

WELCOME TO YOUR AVIATION DREAM!

What's new Up There Icon

WHAT’S NEW HERE?

4000+ aviation terms, acronyms and definitions!
Make your study a little easier with the aviation glossaries that gather over 4000 terms and acronyms extracted from weather, communications, technical and more general topics…
Partnership Icon

PARTNESHIP ANNOUNCEMENT

I am proud to announce a partnership with nizul Logo, study partner of every pilot who wants to consolidate their ground school knowledge and master their written examination.

Try Me Icon

ALL YOURS FOR 30 MINUTES!

Not sure you’d get along with a freelance instructor? How about giving it a try with a 30 minute flight?
My treat! All free.

Resources Tool Box

STUDENT RESOURCES

As a registered student training with me, you get access to a whole lot of files, tools, documents, aviation glossaries, videos, quizzes, sample tests, etc… 

Control Tower Icon

QUESTIONS? CHECK F.A.Q.

In aviation, the only stupid question is the one you didn’t ask. And there is a big chance yours has already been answered in the FAQ. Check it out!

Brain Icon

ARE YOU WIRED FOR FLYING?

Flying an aircraft is usually not the most difficult part of the “problem” and it takes a certain mindset to deal with the other aspects of a flight. Find out wether…

THEY DID IT!

Meet those who refused to be the passengers of their lives, and learn about their experience.

QUICK FACTS

Aviation is a world of serious numbers.
Here are my own, and they count as much as the other ones.

0
YEARS OF
WISDOM
0
YEARS OF
SKY FUN
0
AMAZING
STUDENTS
0
HOURS OF
PURE EXCITEMENT

Grow some wings,
Come fly with me!

Vancouver Island Weather

METARs and TAFs.
VICTORIA INTL (CYYJ)
METAR:

CYYJ 172200Z 08005KT 30SM SKC 21/04 A3020 RMK SLP229 DENSITY ALT 500FT

TAF:

TAF CYYJ 171738Z 1718/1818 VRB03KT P6SM SKC BECMG 1718/1720 04006KT BECMG 1722/1724 VRB03KT RMK NXT FCST BY 180000Z

NANAIMO (CYCD)
METAR:

CYCD 172200Z VRB04KT 30SM SKC 23/08 A3020 RMK SLP230 DENSITY ALT 800FT

TAF:

TAF CYCD 171738Z 1718/1804 VRB03KT P6SM SKC BECMG 1718/1720 03005KT BECMG 1801/1803 VRB03KT RMK NXT FCST BY 180000Z

LONG BEACH (CYAZ)
METAR:

CYAZ 172200Z 19005KT 150V220 15SM SKC 16/07 A3021 RMK SLP233

TAF:

TAF CYAZ 171838Z 1719/1801 17005KT P6SM SKC BECMG 1722/1724 26005KT RMK NXT FCST WILL BE ISSUED AT 181445Z

For more in-depth weather information, please, check Collaborative Flight Planning Service

For all Runway conditions in CYYJ, please check

IIDS Web View

Windy’s Forecast & Observations